Regional Weather Roundup
Issued by NWS Memphis, TN

Home | Current Version | Previous Version | Text Only | Print | Product List | Glossary On
Versions: 1 2 3 4 5 6 7 8 9 10 11 12 13 14 15 16 17 18 19 20 21 22 23 24 25 26 27 28 29 30 31 32 33 34 35 36 37 38 39 40 41 42 43 44 45 46 47 48 49 50
000
ASUS44 KMEG 211010
RWRMEG
MEMPHIS CWA HOURLY WEATHER ROUNDUP
NATIONAL WEATHER SERVICE MEMPHIS TN
400 AM CST SAT JAN 21 2017

...WEST TENNESSEE...

CITY           SKY/WX    TMP DP  RH WIND       PRES   REMARKS
MEMPHIS INTL   CLOUDY    61  52  72 CALM      29.66F
NWS MEMPHIS      N/A     58 N/A N/A MISG        N/A
JACKSON        CLOUDY    59  53  80 S5        29.68F
BOLIVAR        PTCLDY    55  54  94 CALM      29.68F
DYERSBURG      CLOUDY    59  50  72 CALM      29.66F
UNION CITY     PTCLDY    57  57 100 CALM      29.66S
PARIS          PTCLDY    55  52  88 CALM      29.69F
HUNTINGDON     CLOUDY    57  54  88 CALM      29.68F


...EASTERN ARKANSAS...

CITY           SKY/WX    TMP DP  RH WIND       PRES   REMARKS
JONESBORO      CLOUDY    54  51  90 S6        29.65S
WEST MEMPHIS   CLOUDY    57  54  89 S6        29.66F
BATESVILLE     PTCLDY    54  46  76 SE8       29.63S
NEWPORT        CLOUDY    53  49  86 SE7       29.64
WALNUT RIDGE   PTCLDY    52  46  82 S8        29.62S
BLYTHEVILLE    CLOUDY    58  53  84 S9        29.66F
SEARCY         CLOUDY    52  51  97 S5        29.65R
STUTTGART      CLOUDY    57  48  72 S3        29.66F
PINE BLUFF     CLOUDY    55  52  89 CALM      29.64F
MONTICELLO     CLOUDY    63  54  72 S7        29.65F


...NORTH MISSISSIPPI...

CITY           SKY/WX    TMP DP  RH WIND       PRES   REMARKS
TUPELO         CLOUDY    58  52  80 SE7       29.70F
OXFORD         LGT RAIN  59  52  77 SE8       29.70F
BATESVILLE     LGT RAIN  58  55  89 N6        29.70F
TUNICA         CLOUDY    61  54  77 S12       29.67F
CLARKSDALE     CLOUDY    61  59  94 SE5       29.67F
CORINTH        CLOUDY    55  52  88 SE5       29.70S
GREENWOOD      LGT RAIN  60  55  83 SE10      29.69F
STARKVILLE     CLOUDY    55  54  94 CALM      29.68F
GOLDEN TRIANGL CLOUDY    57  52  82 CALM      29.63F


...SOUTHEAST MISSOURI...

CITY           SKY/WX    TMP DP  RH WIND       PRES   REMARKS
KENNETT        CLOUDY    55  54  94 S10       29.63S
WEST PLAINS    CLOUDY    50  44  80 S6        29.58F
POPLAR BLUFF   PTCLDY    44  44 100 CALM      29.61F FOG
CAPE GIRARDEAU PTCLDY    50  47  89 SE3       29.62F


...NORTHWEST ALABAMA...

CITY           SKY/WX    TMP DP  RH WIND       PRES   REMARKS
MUSCLE SHOALS  CLOUDY    55  52  89 E7        29.73F


...MIDDLE TENNESSEE...

CITY           SKY/WX    TMP DP  RH WIND       PRES   REMARKS
NASHVILLE      CLOUDY    58  53  84 S9        29.75F
CLARKSVILLE    CLOUDY    55  50  83 SE5       29.71F
COLUMBIA       CLEAR     59  59 100 S5        29.73F


...WESTERN KENTUCKY...

CITY           SKY/WX    TMP DP  RH WIND       PRES   REMARKS
PADUCAH        CLOUDY    58  51  78 S9        29.64F
FORT CAMPBELL  MOCLDY    57  53  86 SE7       29.70F


...CENTRAL ARKANSAS...

CITY           SKY/WX    TMP DP  RH WIND       PRES   REMARKS
LITTLE ROCK    CLOUDY    52  51  97 S7        29.64F


SKY/WX REPORTED AS FAIR MEANS FEW OR NO CLOUDS BELOW
12 THOUSAND FEET.





USA.gov is the U.S. government's official web portal to all federal, state and local government web resources and services.